[[{"header":{"parameterUnit":"m.s-1","parameterCategory":1,"la1":30.2991,"la2":30.254,"lo1":-89.0895,"lo2":-89.0444,"dy":0.0017,"dx":0.0017,"nx":28,"ny":28,"refTime":"2024-07-09T03:00:00:Z","depth":0,"parameterNumber":2,"parameterNumberName":"U-component_of_WINDS"},"data":[0,0,0,0,0,0,0,0,0,0,0,0,0,0,0,0,0,0,0,0,0,0,0,0,0,0,0,0,0,0,0,0,0,0,0,0,0,0,0,0,0,0,0,0,0,0,0,0,0,0,0,0,0,0,0,0,0,0,-1.9185,-1.9184,0,-1.9133,-1.9133,-1.9132,-1.9107,-1.9107,-1.9107,-1.9107,-1.9054,-1.9053,-1.9051,0,0,0,0,0,0,0,0,0,0,0,0,0,-1.9262,-1.9261,-1.9185,-1.9184,-1.9184,-1.9133,-1.9133,-1.9132,-1.9107,-1.9107,-1.9107,-1.9107,-1.9055,-1.9053,-1.9051,0,0,0,0,0,0,0,0,0,0,0,0,0,-1.9221,-1.9261,-1.9185,-1.9165,-1.9163,-1.9134,-1.9133,-1.9132,-1.9107,-1.9107,-1.9107,-1.9107,-1.9055,-1.9053,-1.9051,-1.9038,0,0,-1.9045,-1.9044,0,0,0,0,0,0,0,0,-1.9224,-1.9219,-1.9169,-1.9166,-1.9164,-1.9127,-1.9141,-1.91,-1.9107,-1.9128,-1.9107,-1.9107,-1.9078,-1.9074,-1.9065,-1.9035,-1.9033,-1.9044,-1.9043,-1.9042,-1.9042,0,0,0,0,0,0,0,-1.9227,-1.9221,-1.9165,-1.9168,-1.9165,-1.9159,-1.9153,-1.9133,-1.9104,-1.9126,-1.9124,-1.9119,-1.9077,-1.9067,-1.9063,-1.9032,-1.9045,-1.9043,-1.9041,-1.9041,-1.899,-1.899,0,0,0,0,0,0,-1.9233,-1.9223,-1.9166,-1.9163,-1.9194,-1.9157,-1.9151,-1.9139,-1.9104,-1.9099,-1.9119,-1.9118,-1.907,-1.9066,-1.9061,-1.9043,-1.9042,-1.904,-1.9039,-1.899,-1.899,-1.899,0,0,0,0,0,0,-1.9234,-1.9228,-1.9168,-1.9193,-1.9185,-1.9156,-1.9142,-1.9138,-1.9127,-1.9098,-1.9093,-1.9113,-1.907,-1.9064,-1.9044,-1.9041,-1.9039,-1.9037,-1.899,-1.899,-1.899,-1.9007,0,0,0,0,0,0,-1.9237,-1.9229,-1.9223,-1.9193,-1.9183,-1.9152,-1.9142,-1.9137,-1.9124,-1.9122,-1.9092,-1.9087,-1.907,-1.9047,-1.9042,-1.9038,-1.9036,-1.899,-1.899,-1.899,-1.9007,-1.9008,-1.9009,0,0,0,0,0,-1.924,-1.923,-1.9223,-1.9216,-1.9176,-1.9152,-1.9146,-1.9127,-1.9123,-1.9118,-1.9099,-1.9088,-1.9042,-1.9045,-1.9039,-1.9035,-1.899,-1.899,-1.899,-1.9006,-1.9008,-1.9009,0,0,0,0,0,0,-1.9261,-1.9226,-1.9217,-1.9198,-1.9178,-1.9147,-1.914,-1.9128,-1.9109,-1.9108,-1.9085,-1.9078,-1.906,-1.9045,-1.9049,-1.902,-1.9015,-1.9014,-1.903,-1.9031,-1.9032,-1.9036,-1.9034,0,0,0,0,0,-1.9264,-1.9247,-1.9217,-1.9203,-1.9193,-1.9168,-1.9157,-1.9143,-1.9122,-1.9113,-1.9093,-1.9073,-1.9054,-1.9042,-1.9023,-1.9005,-1.8998,-1.8999,-1.9,-1.9001,-1.9,-1.8989,-1.8989,-1.8989,-1.8989,-1.8989,0,0,-1.9269,-1.9247,-1.9238,-1.9206,-1.9189,-1.9172,-1.9161,-1.9144,-1.9131,-1.911,-1.909,-1.9075,-1.905,-1.9031,-1.9022,-1.9018,-1.8998,-1.9001,-1.9001,-1.9,-1.8989,-1.8989,-1.8989,-1.8989,-1.8989,-1.8989,0,0,-1.9269,-1.9251,-1.9237,-1.922,-1.9195,-1.9178,-1.9175,-1.9146,-1.9135,-1.9114,-1.9098,-1.9083,-1.9051,-1.9034,-1.9021,-1.9016,-1.9005,-1.901,-1.9015,-1.9005,-1.9005,-1.9005,-1.9003,-1.9002,-1.901,-1.901,-1.901,0,-1.9278,-1.9252,-1.9231,-1.9215,-1.9201,-1.9182,-1.9168,-1.9153,-1.9122,-1.9113,-1.911,-1.907,-1.9052,-1.9029,-1.9027,-1.9018,-1.9013,-1.9013,-1.9007,-1.9006,-1.9006,-1.9004,-1.9003,-1.901,-1.901,-1.901,-1.901,0,-1.9265,-1.9247,-1.9239,-1.9209,-1.9195,-1.918,-1.9157,-1.9145,-1.9133,-1.9117,-1.9096,-1.9074,-1.9051,-1.9044,-1.9032,-1.9019,-1.9018,-1.9011,-1.9006,-1.9007,-1.9005,-1.9004,-1.9012,-1.9011,-1.9011,-1.9011,0,0,-1.9276,-1.9236,-1.9234,-1.922,-1.9191,-1.9176,-1.9161,-1.9137,-1.9127,-1.9107,-1.9093,-1.9067,-1.906,-1.9046,-1.9032,-1.9023,-1.902,-1.9018,-1.9017,-1.9019,-1.9004,-1.9009,-1.9009,-1.9013,-1.9013,-1.9013,-1.9006,0,-1.9272,-1.9242,-1.9223,-1.9201,-1.9184,-1.9166,-1.9152,-1.9133,-1.9117,-1.9101,-1.9084,-1.9066,-1.9059,-1.905,-1.9041,-1.9023,-1.9017,-1.9023,-1.9,-1.8999,-1.9006,-1.9007,-1.9012,-1.9008,-1.9005,-1.9005,-1.9005,0,-1.9263,-1.9243,-1.9219,-1.9192,-1.9184,-1.9172,-1.9149,-1.9133,-1.9111,-1.9101,-1.9085,-1.9071,-1.9053,-1.905,-1.9026,-1.903,-1.902,-1.9009,-1.9009,-1.9005,-1.9002,-1.9004,-1.9006,-1.9005,-1.9003,-1.9003,-1.9003,0,-1.9274,-1.9241,-1.9222,-1.9211,-1.9179,-1.9171,-1.9157,-1.9134,-1.9122,-1.9102,-1.9093,-1.9072,-1.906,-1.9044,-1.9025,-1.9024,-1.9003,-1.8998,-1.8993,-1.8994,-1.8989,-1.899,-1.8989,-1.8983,-1.8983,-1.8983,-1.8983,0,-1.9271,-1.9257,-1.9227,-1.9215,-1.9199,-1.9178,-1.9162,-1.9147,-1.9127,-1.9113,-1.9096,-1.9083,-1.9058,-1.9042,-1.9027,-1.9009,-1.9004,-1.8995,-1.8991,-1.8996,-1.8997,-1.8989,-1.8988,-1.8983,-1.8983,-1.8983,-1.8983,0,-1.928,-1.9259,-1.9237,-1.9208,-1.9201,-1.919,-1.9165,-1.9153,-1.9138,-1.9119,-1.9114,-1.9089,-1.9069,-1.9048,-1.9021,-1.9011,-1.8994,-1.8989,-1.9001,-1.8999,-1.8996,-1.8996,-1.8989,-1.8987,-1.8983,-1.8984,-1.8984,0,-1.9279,-1.9267,-1.9237,-1.9226,-1.9212,-1.9195,-1.9182,-1.9161,-1.9148,-1.9122,-1.9113,-1.9092,-1.9074,-1.9043,-1.9022,-1.9002,-1.8996,-1.8995,-1.8992,-1.8998,-1.8995,-1.8996,-1.8995,-1.8995,-1.8995,-1.8996,-1.8996,0,-1.9279,-1.927,-1.9251,-1.9229,-1.9214,-1.9196,-1.9177,-1.9169,-1.9145,-1.9131,-1.911,-1.9096,-1.9069,-1.9048,-1.9025,-1.9011,-1.8999,-1.8997,-1.8995,-1.8999,-1.9007,-1.9002,-1.9003,-1.8997,-1.8997,-1.8997,-1.8996,-1.8996,-1.9283,-1.9272,-1.9249,-1.9229,-1.9213,-1.9196,-1.9183,-1.9166,-1.9148,-1.9124,-1.9113,-1.9092,-1.907,-1.9038,-1.9024,-1.9008,-1.9005,-1.9002,-1.9001,-1.9,-1.9001,-1.901,-1.9004,-1.9004,-1.9004,-1.9004,-1.9004,0,-1.9282,-1.9267,-1.9248,-1.9223,-1.9207,-1.9198,-1.9176,-1.9164,-1.9146,-1.9127,-1.9109,-1.9086,-1.9065,-1.9044,-1.9022,-1.9013,-1.9008,-1.9008,-1.9009,-1.9006,-1.9006,-1.9009,-1.9014,-1.9014,-1.9014,-1.9014,-1.9014,-1.9014,-1.928,-1.9261,-1.9249,-1.9221,-1.9206,-1.9185,-1.9174,-1.9158,-1.9143,-1.9117,-1.91,-1.9086,-1.9066,-1.9043,-1.9024,-1.9018,-1.9011,-1.9013,-1.9006,-1.9006,-1.9006,-1.9005,-1.9008,-1.9012,-1.9012,-1.9007,-1.9007,-1.9007]},{"header":{"parameterUnit":"m.s-1","parameterCategory":1,"la1":30.2991,"la2":30.254,"lo1":-89.0895,"lo2":-89.0444,"dy":0.0017,"dx":0.0017,"nx":28,"ny":28,"refTime":"2024-07-09T03:00:00:Z","depth":0,"parameterNumber":3,"parameterNumberName":"V-component_of_WINDS"},"data":[0,0,0,0,0,0,0,0,0,0,0,0,0,0,0,0,0,0,0,0,0,0,0,0,0,0,0,0,0,0,0,0,0,0,0,0,0,0,0,0,0,0,0,0,0,0,0,0,0,0,0,0,0,0,0,0,0,0,4.4393,4.4392,0,4.43,4.4298,4.4297,4.4186,4.4184,4.4182,4.418,4.4083,4.4082,4.4081,0,0,0,0,0,0,0,0,0,0,0,0,0,4.4473,4.4472,4.4393,4.4392,4.4391,4.43,4.4298,4.4297,4.4186,4.4184,4.4182,4.418,4.4083,4.4082,4.4081,0,0,0,0,0,0,0,0,0,0,0,0,0,4.4415,4.4472,4.4393,4.4324,4.4317,4.43,4.4298,4.4297,4.4186,4.4184,4.4181,4.4179,4.4083,4.4082,4.408,4.4123,0,0,4.4076,4.4075,0,0,0,0,0,0,0,0,4.4418,4.4412,4.4335,4.4329,4.4321,4.4252,4.4291,4.4238,4.4187,4.4236,4.418,4.4177,4.4141,4.4134,4.4122,4.4118,4.4114,4.4076,4.4075,4.4074,4.4074,0,0,0,0,0,0,0,4.4422,4.4415,4.4356,4.4334,4.4326,4.4297,4.4286,4.428,4.4204,4.4231,4.4223,4.4214,4.4136,4.4124,4.4119,4.4113,4.4076,4.4074,4.4073,4.4073,4.4139,4.4141,0,0,0,0,0,0,4.4437,4.4419,4.4359,4.4353,4.4364,4.4298,4.4286,4.4276,4.4204,4.419,4.4216,4.4209,4.4128,4.4121,4.4115,4.416,4.4074,4.4073,4.4072,4.4136,4.4139,4.4142,0,0,0,0,0,0,4.4439,4.4433,4.4363,4.4384,4.4373,4.4299,4.429,4.4276,4.4264,4.4192,4.4178,4.4218,4.4126,4.4118,4.4122,4.4155,4.4072,4.4071,4.4133,4.4137,4.4141,4.4251,0,0,0,0,0,0,4.4442,4.4434,4.445,4.4385,4.4372,4.4372,4.4292,4.4276,4.4262,4.4251,4.419,4.4177,4.4123,4.4125,4.4121,4.4152,4.4069,4.413,4.4135,4.4139,4.4244,4.4258,4.427,0,0,0,0,0,4.4445,4.4484,4.4451,4.4445,4.439,4.4374,4.4366,4.4304,4.4265,4.428,4.4234,4.4179,4.4153,4.4126,4.412,4.4152,4.4127,4.4133,4.4139,4.4238,4.4255,4.427,0,0,0,0,0,0,4.4553,4.4474,4.4437,4.4456,4.4423,4.4355,4.4372,4.4324,4.43,4.4292,4.4214,4.4201,4.4215,4.4184,4.4156,4.4189,4.4132,4.4137,4.4209,4.4225,4.4238,4.4245,4.4068,0,0,0,0,0,4.458,4.4574,4.4504,4.4528,4.4513,4.4446,4.4436,4.4391,4.4353,4.4338,4.4292,4.4257,4.424,4.4231,4.4212,4.4239,4.4224,4.4258,4.4271,4.4282,4.4287,4.4299,4.4314,4.4162,4.4162,4.4162,0,0,4.4634,4.459,4.459,4.4549,4.4517,4.4512,4.4434,4.4432,4.4427,4.4337,4.4339,4.4304,4.4259,4.4276,4.4281,4.425,4.4326,4.429,4.4299,4.4298,4.4307,4.4322,4.4334,4.4166,4.4165,4.4164,0,0,4.4729,4.4695,4.4711,4.4682,4.4636,4.4591,4.4595,4.4535,4.4509,4.451,4.4442,4.4435,4.4408,4.4379,4.4361,4.4447,4.4396,4.4443,4.4512,4.4525,4.4537,4.4547,4.4577,4.4589,4.4449,4.4449,4.4449,0,4.4801,4.4791,4.4725,4.4727,4.4711,4.4631,4.4646,4.4621,4.4571,4.4561,4.4528,4.4493,4.4457,4.4466,4.4487,4.4475,4.4477,4.4449,4.454,4.455,4.4559,4.4587,4.4598,4.4455,4.4454,4.4454,4.4453,0,4.4883,4.4877,4.4895,4.485,4.4836,4.4845,4.478,4.4773,4.473,4.4689,4.4691,4.4645,4.4616,4.4614,4.4572,4.4617,4.46,4.4555,4.4495,4.458,4.4605,4.4616,4.4464,4.4461,4.446,4.4458,0,0,4.5043,4.4962,4.497,4.4949,4.4893,4.4886,4.4892,4.4864,4.486,4.4828,4.4831,4.4811,4.4769,4.4749,4.4702,4.4713,4.4784,4.4666,4.4664,4.469,4.4832,4.4866,4.4879,4.4751,4.4752,4.4754,4.4835,0,4.5127,4.5132,4.5074,4.5094,4.5088,4.5012,4.5017,4.4983,4.4945,4.4934,4.4891,4.4878,4.4824,4.4811,4.4819,4.4774,4.4812,4.4768,4.4751,4.4751,4.4765,4.4892,4.4928,4.5007,4.4845,4.4846,4.4848,0,4.5227,4.5202,4.5223,4.5167,4.5162,4.5167,4.5137,4.5127,4.5087,4.5059,4.5037,4.4984,4.4985,4.493,4.4929,4.4901,4.4891,4.4868,4.4869,4.4865,4.4804,4.4891,4.5031,4.5043,4.4863,4.4861,4.486,0,4.5341,4.5313,4.5322,4.5306,4.5241,4.5246,4.5219,4.5177,4.5164,4.5138,4.5128,4.5103,4.5088,4.5069,4.5011,4.4976,4.5017,4.4957,4.4993,4.4995,4.5005,4.5005,4.5145,4.5,4.4999,4.4999,4.4999,0,4.5442,4.5457,4.5372,4.5378,4.5393,4.5325,4.5342,4.5307,4.5271,4.5268,4.52,4.5199,4.5122,4.5112,4.5066,4.5073,4.5067,4.5043,4.5031,4.5049,4.5052,4.5041,4.5034,4.5002,4.5002,4.5001,4.5,0,4.5572,4.5516,4.552,4.5458,4.5443,4.5457,4.5404,4.5406,4.5364,4.5362,4.5357,4.5291,4.5276,4.5216,4.5186,4.5155,4.5176,4.5152,4.519,4.5182,4.5222,4.5219,4.5359,4.5374,4.522,4.5222,4.5223,0,4.5639,4.565,4.559,4.5583,4.5559,4.555,4.5537,4.5471,4.546,4.5416,4.5424,4.5403,4.5383,4.5362,4.5311,4.5288,4.5262,4.5313,4.5258,4.5277,4.5263,4.5263,4.5263,4.5325,4.5327,4.5328,4.533,0,4.5765,4.5737,4.5722,4.5697,4.5683,4.566,4.5633,4.5631,4.5558,4.5549,4.5533,4.5518,4.5488,4.5468,4.5437,4.5408,4.5357,4.5348,4.5355,4.5373,4.5395,4.5383,4.5222,4.5344,4.5343,4.5342,4.5341,4.5341,4.5866,4.5872,4.5831,4.5815,4.5788,4.5765,4.5764,4.5723,4.5708,4.5679,4.5641,4.563,4.559,4.5543,4.5518,4.5508,4.548,4.549,4.5492,4.5496,4.5505,4.5397,4.5502,4.5502,4.5501,4.5501,4.55,0,4.5988,4.5958,4.5945,4.591,4.5898,4.5852,4.582,4.5813,4.5804,4.5772,4.5754,4.5736,4.5717,4.5665,4.5641,4.5643,4.5619,4.5639,4.5637,4.5632,4.5532,4.5528,4.5659,4.5659,4.5659,4.5658,4.5658,4.5658,4.605,4.6058,4.6025,4.6019,4.5988,4.5978,4.5963,4.5941,4.5915,4.5898,4.5882,4.5849,4.5809,4.5781,4.5762,4.5747,4.5741,4.5769,4.5746,4.5654,4.5639,4.5624,4.562,4.5768,4.5768,4.5847,4.5847,4.5848]}]]